Location: ČR
(50.0000°N, 15.0000°E)
Time: 00:44:48
(UTC+00:00)

ISS - Pass Details

Date: 25 September 2021
Orbit: 417 x 423 km, 51.6° (Epoch: 21 October)

Event Time Altitude Azimuth Distance (km) Brightness Sun altitude
Rises 18:07:32 0° 272° (W) 2,362 1.8 -13.0°
Reaches altitude 10° 18:09:38 10° 275° (W) 1,500 0.5 -13.3°
Maximum altitude 18:12:59 63° 358° (N) 471 -3.5 -13.8°
Enters shadow 18:14:48 24° 74° (ENE) 907 -2.6 -14.1°
